Simultaneous Nadir Overpasses (SNOs) Predictions

Prediction of SNOs between AQUA and NOAA-19 Satellite Orbit:

Table of predicted SNOs for the next 14.0 days since TLE Epoch: 2/11/2023
Index Date (AQUA) Time (AQUA) Lat,Lon (AQUA) SZA (AQUA ) Date (NOAA-19) Time (NOAA-19) Lat,Lon (NOAA-19) SZA (NOAA-19 ) Distance(km) Time Diff (sec)
1 02/11/2023 05:46:22 -76.85, -98.66 88.66 02/11/2023 05:46:20 -76.84, -98.52 88.68 3.59 2
2 02/13/2023 10:29:18 -76.50,-168.19 89.80 02/13/2023 10:28:10 -76.45,-170.46 89.69 59.36 68
3 02/13/2023 11:18:51 76.82, -1.67 90.57 02/13/2023 11:19:04 76.84, -1.63 90.58 2.06 13
4 02/15/2023 16:01:52 76.79, -72.28 89.78 02/15/2023 16:00:47 76.76, -72.32 89.77 3.35 65
5 02/15/2023 16:51:17 -76.81, 95.28 90.21 02/15/2023 16:51:42 -76.80, 95.14 90.21 3.56 25
6 02/17/2023 21:34:17 -76.80, 24.60 90.99 02/17/2023 21:33:23 -76.79, 24.72 90.99 3.29 54
7 02/17/2023 22:23:44 76.84,-167.91 89.05 02/17/2023 22:24:26 76.81,-167.93 89.02 2.95 42
8 02/20/2023 03:06:42 76.80, 121.49 88.23 02/20/2023 03:06:07 76.80, 121.65 88.22 3.95 35
9 02/20/2023 03:56:07 -76.82, -70.93 91.77 02/20/2023 03:57:02 -76.82, -70.98 91.78 1.37 55
10 02/22/2023 08:39:03 -76.76,-141.43 92.64 02/22/2023 08:38:43 -76.78,-141.48 92.60 2.89 20
11 02/22/2023 09:28:32 76.90, 25.70 87.53 02/22/2023 09:29:44 76.91, 26.30 87.48 15.23 72
12 02/24/2023 14:11:25 76.77, -44.54 86.56 02/24/2023 14:11:27 76.79, -44.58 86.58 1.90 2



Historial Predications of SNOs between AQUA and NOAA-19
